Location: Montbazon
(47.2835°N, 0.6999°E)
Time: 06:12:23
(UTC+00:00)

Cosmos 2100 Rocket - Pass Details

Date: 08 November 2025
Orbit: 954 x 1000 km, 82.9° (Epoch: 10 December)

Event Time Altitude Azimuth Distance (km) Brightness Sun altitude
Rises 04:23:42 0° 351° (N) 3,645 6.9 -25.2°
Reaches altitude 10° 04:26:12 10° 351° (N) 2,694 6.2 -24.7°
Maximum altitude 04:32:23 90° 287° (WNW) 963 3.9 -23.7°
Drops below altitude 10° 04:38:32 10° 173° (S) 2,688 6.4 -22.7°
Sets 04:41:02 0° 174° (S) 3,635 7.1 -22.2°
